Location: Staunton
(38.1490°N, 79.0720°W)
Time: 23:17:19
(UTC-05:00)

ISS - Pass Details

Date: 25 January 2021
Orbit: 417 x 422 km, 51.6° (Epoch: 07 March)

Event Time Altitude Azimuth Distance (km) Brightness Sun altitude
Rises 18:08:27 0° 283° (WNW) 2,367 1.2 -7.6°
Reaches altitude 10° 18:11:30 10° 313° (NW) 1,505 -0.5 -8.2°
Maximum altitude 18:13:07 13° 342° (NNW) 1,344 -1.2 -8.5°
Drops below altitude 10° 18:14:45 10° 11° (N) 1,508 -1.2 -8.8°
Enters shadow 18:16:13 - 29° (NNE) 1,868 -0.9 -9.1°
